Weather History for CYXU - October, 2012

Change the Weather History Date:

Friday, October 5, 2012

  Actual Average Record
Temperature  
Mean Temperature 56 °F -  
Max Temperature 65 °F 60 °F 84 °F (2007)
Min Temperature 46 °F 42 °F 33 °F (1999)
Degree Days  
Heating Degree Days 10    
Growing Degree Days 6 (Base 50)    
Moisture  
Dew Point 49 °F    
Average Humidity 73    
Maximum Humidity 93    
Minimum Humidity 52    
Precipitation  
Precipitation 0.00 in - - ()
Sea Level Pressure  
Sea Level Pressure 29.99 in    
Wind  
Wind Speed 10 mph ()    
Max Wind Speed 16 mph    
Max Gust Speed 21 mph    
Visibility 13.5 miles    
Events Rain    
Averages and records for this station are not official NWS values.
T = Trace of Precipitation, MM = Missing Value Source: Averaged Metar Reports

Daily Weather History Graph

Daily Weather History Graph

Search for Another Location

Airport or City:

Trip Planner

Search our weather history database for the weather conditions in past years. The results will help you decide how hot, cold, wet, or windy it might be!

Date:

Astronomy

Oct. 05, 2012 Rise Set
Actual Time 7:27 AM EDT 6:57 PM EDT
Civil Twilight 6:58 AM EDT 7:26 PM EDT
Nautical Twilight 6:25 AM EDT 7:59 PM EDT
Astronomical Twilight 5:52 AM EDT 8:32 PM EDT
Moon 10:13 PM EDT (10/5) 12:40 PM EDT (10/5)
Length of Visible Light 12h 27m
Length of Day
11h 30m
Waning Gibbous, 74% of the Moon is Illuminated
Oct 5
Waning Gibbous
Oct 8
Last Quarter
Oct 15
New
Oct 21
First Quarter
Oct 29
Full

Hourly Weather History & Observations

Time (EDT) Temp. Windchill Dew Point Humidity Pressure Visibility Wind Dir Wind Speed Gust Speed Precip Events Conditions
12:00 AM 64.4 °F - 55.4 °F 73% 30.01 in 15.0 mi SSW 11.5 mph - N/A   Overcast
1:00 AM 64.4 °F - 55.4 °F 73% 30.00 in 15.0 mi SSW 10.4 mph - N/A   Mostly Cloudy
2:00 AM 65 °F - 56 °F 65% 29.99 in 15 mi SW 9.2 mph - -   Overcast
2:00 AM 64.4 °F - 55.4 °F 73% 29.99 in 15.0 mi SW 8.1 mph - N/A Rain Light Rain
3:00 AM 64.4 °F - 55.4 °F 73% 30.00 in 15.0 mi WSW 9.2 mph - N/A   Mostly Cloudy
4:00 AM 62.6 °F - 55.4 °F 77% 29.99 in 15.0 mi WSW 10.4 mph - N/A Rain Light Rain
5:00 AM 60.8 °F - 57.2 °F 88% 29.99 in 15.0 mi WSW 9.2 mph - N/A   Mostly Cloudy
6:00 AM 62.6 °F - 57.2 °F 82% 30.00 in 15.0 mi WSW 15.0 mph 20.7 mph N/A   Overcast
7:00 AM 60.8 °F - 53.6 °F 77% 30.01 in 15.0 mi West 16.1 mph - N/A   Overcast
8:00 AM 57.2 °F - 50.0 °F 77% 30.02 in 15.0 mi West 10.4 mph - N/A   Overcast
9:00 AM 59.0 °F - 51.8 °F 77% 30.03 in 15.0 mi West 15.0 mph - N/A   Mostly Cloudy
10:00 AM 57.2 °F - 50.0 °F 77% 30.03 in 15.0 mi West 15.0 mph - N/A   Mostly Cloudy
11:00 AM 59.0 °F - 48.2 °F 67% 30.03 in 15.0 mi West 11.5 mph - N/A   Mostly Cloudy
12:00 PM 59.0 °F - 48.2 °F 67% 30.02 in 15.0 mi WSW 13.8 mph - N/A   Overcast
1:00 PM 59.0 °F - 46.4 °F 63% 30.01 in 15.0 mi West 11.5 mph 19.6 mph N/A   Overcast
2:00 PM 59 °F - 46 °F 52% 30.01 in 15 mi West 11.5 mph - -   Overcast
2:00 PM 59.0 °F - 46.4 °F 63% 30.01 in 15.0 mi West 12.7 mph - N/A   Overcast
3:00 PM 59.0 °F - 44.6 °F 59% 30.00 in 15.0 mi WSW 9.2 mph - N/A   Overcast
4:00 PM 59.0 °F - 44.6 °F 59% 29.98 in 15.0 mi West 11.5 mph - N/A   Overcast
5:00 PM 57.2 °F - 42.8 °F 59% 29.96 in 15.0 mi WSW 10.4 mph - N/A   Overcast
6:00 PM 57.2 °F - 41.0 °F 55% 29.96 in 15.0 mi WSW 11.5 mph - N/A Rain Light Rain Showers
7:00 PM 53.6 °F - 44.6 °F 72% 29.95 in 12.0 mi West 8.1 mph - N/A Rain Light Rain Showers
8:00 PM 51 °F - 45 °F 74% 29.97 in 47 mi West 8.1 mph - -   Overcast
8:00 PM 50.0 °F - 44.6 °F 82% 29.97 in 15.0 mi WSW 5.8 mph - N/A Rain Light Rain Showers
9:00 PM 48.2 °F - 44.6 °F 87% 29.97 in 12.0 mi WSW 9.2 mph - N/A Rain Light Rain Showers
10:00 PM 46.4 °F 42.9 °F 44.6 °F 93% 29.94 in 5.0 mi West 6.9 mph - N/A Rain Light Rain
11:00 PM 46.4 °F 41.9 °F 44.6 °F 93% 29.94 in 3.0 mi SW 9.2 mph - N/A Rain Light Rain
11:38 PM 46.4 °F 42.9 °F 44.6 °F 93% 29.92 in 3.0 mi West 6.9 mph - N/A Rain Light Rain